Agostadero, Mexico

4:49 AM CST on February 23, 2017 (GMT -0600)
Gen Heriberto Jara International

Weather History for MMVR - May, 2013

Change the Weather History Date:

Saturday, May 11, 2013

  Actual Average Record
Temperature  
Mean Temperature 80 °F -  
Max Temperature 87 °F 89 °F 96 °F (1999)
Min Temperature 73 °F 73 °F 73 °F (1997)
Cooling Degree Days 15    
Growing Degree Days 30 (Base 50)    
Moisture  
Dew Point 70 °F    
Average Humidity 69    
Maximum Humidity 83    
Minimum Humidity 55    
Precipitation  
Precipitation 0.00 in - - ()
Sea Level Pressure  
Sea Level Pressure 29.83 in    
Wind  
Wind Speed 9 mph ()    
Max Wind Speed 23 mph    
Max Gust Speed 32 mph    
Visibility 4.6 miles    
Events      
Averages and records for this station are not official NWS values.
T = Trace of Precipitation, MM = Missing Value Source: Averaged Metar Reports

Daily Weather History Graph

Daily Weather History Graph

Search for Another Location

Airport or City:

Trip Planner

Search our weather history database for the weather conditions in past years. The results will help you decide how hot, cold, wet, or windy it might be!

Date:

Astronomy

May. 11, 2013 Rise Set
Actual Time 6:51 AM CDT 7:50 PM CDT
Civil Twilight 6:28 AM CDT 8:14 PM CDT
Nautical Twilight 6:00 AM CDT 8:41 PM CDT
Astronomical Twilight 5:32 AM CDT 9:10 PM CDT
Moon 8:04 AM CDT (5/11) 9:27 PM CDT (5/11)
Length of Visible Light 13h 46m
Length of Day
12h 59m
Waxing Crescent, 3% of the Moon is Illuminated
May 11
Waxing Crescent
May 17
First Quarter
May 24
Full
May 31
Last Quarter
Jun 8
New

Hourly Weather History & Observations

Time (CDT) Temp. Heat Index Dew Point Humidity Pressure Visibility Wind Dir Wind Speed Gust Speed Precip Events Conditions
5:08 AM 73.4 °F - 64.4 °F 73% 29.79 in 6.0 mi SSW 5.8 mph - N/A   Scattered Clouds
5:43 AM 73.4 °F - 64.4 °F 73% 29.79 in 6.0 mi WSW 4.6 mph - N/A   Scattered Clouds
6:50 AM 73.4 °F - 66.2 °F 78% 29.80 in 5.0 mi SW 3.5 mph - N/A   Scattered Clouds
7:49 AM 75.2 °F - 68.0 °F 78% 29.83 in 5.0 mi WSW 3.5 mph - N/A   Scattered Clouds
8:42 AM 78.8 °F - 69.8 °F 74% 29.86 in 5.0 mi SSE 2.3 mph - N/A   Scattered Clouds
9:48 AM 82.4 °F 86.3 °F 69.8 °F 66% 29.86 in 5.0 mi ESE 3.5 mph - N/A   Scattered Clouds
11:02 AM 86.0 °F 90.4 °F 69.8 °F 58% 29.86 in 5.0 mi ENE 2.3 mph - N/A   Scattered Clouds
11:46 AM 87.8 °F 92.6 °F 69.8 °F 55% 29.84 in 5.0 mi ENE 6.9 mph - N/A   Scattered Clouds
12:43 PM 87.8 °F 92.6 °F 69.8 °F 55% 29.85 in 5.0 mi East 10.4 mph - N/A   Scattered Clouds
1:42 PM 86.0 °F 93.4 °F 73.4 °F 66% 29.84 in 5.0 mi NNE 20.7 mph - N/A   Scattered Clouds
2:44 PM 86.0 °F 91.8 °F 71.6 °F 62% 29.82 in 4.0 mi NNE 17.3 mph - N/A   Scattered Clouds
3:43 PM 86.0 °F 91.8 °F 71.6 °F 62% 29.83 in 4.0 mi NNE 20.7 mph - N/A   Scattered Clouds
4:47 PM 87.8 °F 92.6 °F 69.8 °F 55% 29.77 in 3.0 mi NNE 23.0 mph - N/A   Mostly Cloudy
5:51 PM 84.2 °F 89.6 °F 71.6 °F 66% 29.77 in 3.0 mi NNE 19.6 mph - N/A   Partly Cloudy
6:49 PM 82.4 °F 87.2 °F 71.6 °F 70% 29.77 in 3.0 mi NNE 20.7 mph - N/A   Clear
7:47 PM 80.6 °F 84.6 °F 71.6 °F 74% 29.81 in 3.0 mi North 20.7 mph 32.2 mph N/A   Scattered Clouds
8:48 PM 78.8 °F - 73.4 °F 83% 29.85 in 5.0 mi North 16.1 mph 27.6 mph N/A   Scattered Clouds
9:48 PM 78.8 °F - 73.4 °F 83% 29.86 in 5.0 mi NNE 16.1 mph 27.6 mph N/A   Scattered Clouds
10:47 PM 78.8 °F - 73.4 °F 83% 29.92 in 5.0 mi NNE 17.3 mph 28.8 mph N/A   Clear